| time (UTC) | temp C | wind direction | speed KPH | gust KPH | rain 1hr cm | rain 24hr cm | rain mn cm | humidity % | barometer mb |
| 20260506015951 | 19 | 204 | 4.8 | 12.9 | 0.00 | 0.05 | 0.05 | 52 | 1008.2 |
| 20260506015455 | -17 | 147 | 410.4 | 0.0 | 0.00 | 0.00 | 0.00 | ||
| 20260506015451 | 19 | 166 | 4.8 | 9.7 | 0.00 | 0.05 | 0.05 | 51 | 1008.2 |
| 20260506014950 | 20 | 173 | 6.4 | 12.9 | 0.00 | 0.05 | 0.05 | 51 | 1008.2 |
| 20260506014450 | 20 | 224 | 4.8 | 14.5 | 0.00 | 0.05 | 0.05 | 51 | 1008.1 |
| 20260506013950 | 20 | 163 | 6.4 | 16.1 | 0.00 | 0.05 | 0.05 | 51 | 1008.1 |
| 20260506013450 | 20 | 237 | 6.4 | 17.7 | 0.00 | 0.05 | 0.05 | 51 | 1008.1 |
| 20260506012949 | 20 | 241 | 6.4 | 9.7 | 0.00 | 0.05 | 0.05 | 52 | 1008.0 |
| 20260506012454 | -17 | 147 | 410.4 | 0.0 | 0.00 | 0.00 | 0.00 | ||
| 20260506012449 | 20 | 202 | 4.8 | 14.5 | 0.00 | 0.05 | 0.05 | 52 | 1008.0 |
| 20260506011949 | 20 | 202 | 4.8 | 9.7 | 0.00 | 0.05 | 0.05 | 52 | 1007.9 |
| 20260506011449 | 20 | 224 | 4.8 | 9.7 | 0.00 | 0.05 | 0.05 | 52 | 1007.9 |
| 20260506010954 | -17 | 147 | 410.4 | 0.0 | 0.00 | 0.00 | 0.00 | ||
| 20260506010948 | 20 | 243 | 4.8 | 14.5 | 0.00 | 0.05 | 0.05 | 51 | 1007.8 |
| 20260506010448 | 20 | 199 | 4.8 | 11.3 | 0.00 | 0.05 | 0.05 | 51 | 1007.8 |
| 20260506005947 | 20 | 213 | 4.8 | 11.3 | 0.00 | 0.05 | 0.05 | 51 | 1007.8 |
| 20260506005453 | -17 | 147 | 410.4 | 0.0 | 0.00 | 0.00 | 0.00 | ||
| 20260506005447 | 20 | 221 | 4.8 | 16.1 | 0.00 | 0.05 | 0.05 | 51 | 1007.6 |
| 20260506004947 | 20 | 212 | 4.8 | 16.1 | 0.00 | 0.05 | 0.05 | 51 | 1007.5 |
| 20260506004447 | 20 | 211 | 4.8 | 12.9 | 0.00 | 0.05 | 0.05 | 51 | 1007.5 |
| 20260506003951 | -17 | 147 | 410.4 | 0.0 | 0.00 | 0.00 | 0.00 | ||
| 20260506003946 | 20 | 261 | 4.8 | 12.9 | 0.00 | 0.05 | 0.05 | 51 | 1007.5 |
| 20260506003446 | 20 | 273 | 4.8 | 11.3 | 0.00 | 0.05 | 0.05 | 50 | 1007.6 |
| 20260506002946 | 20 | 176 | 4.8 | 9.7 | 0.00 | 0.05 | 0.05 | 50 | 1007.6 |
| 20260506002445 | 20 | 213 | 6.4 | 20.9 | 0.00 | 0.05 | 0.05 | 49 | 1007.5 |
| 20260506001945 | 20 | 203 | 4.8 | 12.9 | 0.00 | 0.05 | 0.05 | 49 | 1007.5 |
| 20260506001445 | 21 | 188 | 4.8 | 8.0 | 0.00 | 0.05 | 0.05 | 49 | 1007.4 |
| 20260506000945 | 21 | 229 | 4.8 | 12.9 | 0.00 | 0.05 | 0.05 | 48 | 1007.4 |
| 20260506000445 | 21 | 221 | 4.8 | 9.7 | 0.00 | 0.05 | 0.05 | 48 | 1007.4 |
| 20260505235944 | 21 | 155 | 6.4 | 16.1 | 0.00 | 0.05 | 0.05 | 48 | 1007.3 |
| 20260505235444 | 21 | 238 | 6.4 | 11.3 | 0.00 | 0.05 | 0.05 | 47 | 1007.3 |
| 20260505234943 | 21 | 207 | 6.4 | 14.5 | 0.00 | 0.05 | 0.05 | 47 | 1007.2 |
| 20260505234443 | 21 | 221 | 6.4 | 14.5 | 0.00 | 0.05 | 0.05 | 47 | 1007.3 |
| 20260505233948 | -17 | 147 | 410.4 | 0.0 | 0.00 | 0.00 | 0.00 | ||
| 20260505233943 | 21 | 200 | 6.4 | 14.5 | 0.00 | 0.05 | 0.05 | 47 | 1007.3 |
| 20260505233443 | 21 | 205 | 6.4 | 19.3 | 0.00 | 0.05 | 0.05 | 47 | 1007.2 |
| 20260505232942 | 22 | 241 | 8.0 | 14.5 | 0.00 | 0.05 | 0.05 | 47 | 1007.1 |
| 20260505232442 | 22 | 209 | 8.0 | 25.7 | 0.00 | 0.05 | 0.05 | 47 | 1007.1 |
| 20260505231942 | 22 | 215 | 8.0 | 16.1 | 0.00 | 0.05 | 0.05 | 46 | 1007.1 |
| 20260505231441 | 22 | 198 | 8.0 | 16.1 | 0.00 | 0.05 | 0.05 | 46 | 1007.1 |
| 20260505230941 | 22 | 198 | 6.4 | 25.7 | 0.00 | 0.05 | 0.05 | 45 | 1007.0 |
| 20260505230441 | 22 | 226 | 6.4 | 16.1 | 0.00 | 0.05 | 0.05 | 42 | 1007.1 |
| 20260505225940 | 22 | 214 | 8.0 | 19.3 | 0.00 | 0.05 | 0.05 | 41 | 1007.0 |
| 20260505225445 | -17 | 147 | 410.4 | 0.0 | 0.00 | 0.00 | 0.00 | ||
| 20260505225440 | 22 | 226 | 8.0 | 17.7 | 0.00 | 0.05 | 0.05 | 41 | 1007.0 |
| 20260505224940 | 22 | 193 | 8.0 | 17.7 | 0.00 | 0.05 | 0.05 | 41 | 1007.0 |
| 20260505224440 | 22 | 216 | 8.0 | 20.9 | 0.00 | 0.05 | 0.05 | 41 | 1006.9 |
| 20260505223944 | -17 | 147 | 410.4 | 0.0 | 0.00 | 0.00 | 0.00 | ||
| 20260505223939 | 22 | 165 | 8.0 | 22.5 | 0.00 | 0.05 | 0.05 | 41 | 1006.8 |
| 20260505223439 | 22 | 241 | 9.7 | 22.5 | 0.00 | 0.05 | 0.05 | 40 | 1006.7 |
| 20260505222444 | -17 | 147 | 410.4 | 0.0 | 0.00 | 0.00 | 0.00 | ||
| 20260505222438 | 22 | 232 | 9.7 | 20.9 | 0.00 | 0.05 | 0.05 | 40 | 1006.8 |
| 20260505221938 | 22 | 180 | 9.7 | 20.9 | 0.00 | 0.05 | 0.05 | 41 | 1006.9 |
| 20260505221438 | 22 | 215 | 8.0 | 22.5 | 0.00 | 0.05 | 0.05 | 41 | 1006.7 |
| 20260505220942 | -17 | 147 | 410.4 | 0.0 | 0.00 | 0.00 | 0.00 | ||
| 20260505220938 | 22 | 242 | 8.0 | 17.7 | 0.00 | 0.05 | 0.05 | 41 | 1006.7 |
| 20260505220437 | 23 | 227 | 9.7 | 17.7 | 0.00 | 0.05 | 0.05 | 41 | 1006.9 |
| 20260505215938 | 23 | 163 | 9.7 | 25.7 | 0.00 | 0.05 | 0.05 | 40 | 1006.7 |
| 20260505215437 | 22 | 225 | 9.7 | 27.4 | 0.00 | 0.05 | 0.05 | 41 | 1006.6 |
| 20260505214936 | 22 | 209 | 9.7 | 20.9 | 0.00 | 0.05 | 0.05 | 40 | 1006.7 |
| 20260505214436 | 22 | 219 | 9.7 | 24.1 | 0.00 | 0.05 | 0.05 | 40 | 1006.7 |
| 20260505213941 | -17 | 147 | 410.4 | 0.0 | 0.00 | 0.00 | 0.00 | ||
| 20260505213436 | 22 | 232 | 9.7 | 27.4 | 0.00 | 0.05 | 0.05 | 42 | 1006.7 |
| 20260505212935 | 22 | 259 | 9.7 | 16.1 | 0.00 | 0.05 | 0.05 | 43 | 1006.7 |
| 20260505212440 | -17 | 147 | 410.4 | 0.0 | 0.00 | 0.00 | 0.00 | ||
| 20260505212435 | 23 | 247 | 9.7 | 24.1 | 0.00 | 0.05 | 0.05 | 44 | 1006.6 |
| 20260505211935 | 23 | 227 | 8.0 | 19.3 | 0.00 | 0.05 | 0.05 | 44 | 1006.5 |
| 20260505211434 | 23 | 130 | 9.7 | 25.7 | 0.00 | 0.05 | 0.05 | 41 | 1006.5 |
| 20260505210935 | 23 | 151 | 9.7 | 25.7 | 0.00 | 0.05 | 0.05 | 40 | 1006.6 |
| 20260505210434 | 23 | 215 | 11.3 | 20.9 | 0.00 | 0.05 | 0.05 | 40 | 1006.5 |
| 20260505205933 | 24 | 211 | 9.7 | 29.0 | 0.00 | 0.05 | 0.05 | 40 | 1006.4 |
| 20260505204933 | 24 | 208 | 8.0 | 20.9 | 0.00 | 0.05 | 0.05 | 41 | 1006.5 |
| 20260505204433 | 24 | 184 | 9.7 | 25.7 | 0.00 | 0.05 | 0.05 | 39 | 1006.4 |
| 20260505203932 | 24 | 167 | 11.3 | 25.7 | 0.00 | 0.05 | 0.05 | 39 | 1006.6 |
| 20260505203432 | 24 | 86 | 11.3 | 25.7 | 0.00 | 0.05 | 0.05 | 37 | 1006.5 |
| 20260505202932 | 24 | 304 | 11.3 | 22.5 | 0.00 | 0.05 | 0.05 | 37 | 1006.7 |
| 20260505202431 | 25 | 226 | 14.5 | 40.2 | 0.00 | 0.05 | 0.05 | 36 | 1006.6 |
| 20260505201931 | 25 | 234 | 12.9 | 33.8 | 0.00 | 0.05 | 0.05 | 36 | 1006.6 |
| 20260505200938 | -17 | 147 | 410.4 | 0.0 | 0.00 | 0.00 | 0.00 | ||
| 20260505200430 | 25 | 211 | 11.3 | 27.4 | 0.00 | 0.05 | 0.05 | 38 | 1006.5 |
| 20260505195932 | 24 | 242 | 11.3 | 29.0 | 0.00 | 0.05 | 0.05 | 38 | 1006.4 |
| 20260505195435 | -17 | 147 | 410.4 | 0.0 | 0.00 | 0.00 | 0.00 | ||
| 20260505195430 | 24 | 166 | 12.9 | 20.9 | 0.00 | 0.05 | 0.05 | 38 | 1006.6 |
| 20260505194429 | 24 | 237 | 14.5 | 38.6 | 0.00 | 0.05 | 0.05 | 38 | 1006.7 |
| 20260505193934 | -17 | 147 | 410.4 | 0.0 | 0.00 | 0.00 | 0.00 | ||
| 20260505193930 | 25 | 157 | 11.3 | 24.1 | 0.00 | 0.05 | 0.05 | 39 | 1006.7 |
| 20260505193429 | 24 | 235 | 11.3 | 32.2 | 0.00 | 0.05 | 0.05 | 39 | 1007.0 |
| 20260505192928 | 23 | 273 | 12.9 | 19.3 | 0.00 | 0.05 | 0.05 | 39 | 1007.2 |
| 20260505192433 | -17 | 147 | 410.4 | 0.0 | 0.00 | 0.00 | 0.00 | ||
| 20260505192428 | 23 | 182 | 12.9 | 25.7 | 0.00 | 0.05 | 0.05 | 39 | 1007.2 |
| 20260505191928 | 23 | 294 | 12.9 | 22.5 | 0.00 | 0.05 | 0.05 | 38 | 1007.2 |
| 20260505191427 | 25 | 169 | 14.5 | 29.0 | 0.00 | 0.05 | 0.05 | 37 | 1007.2 |
| 20260505190932 | -17 | 147 | 410.4 | 0.0 | 0.00 | 0.00 | 0.00 | ||
| 20260505190927 | 25 | 213 | 12.9 | 25.7 | 0.00 | 0.05 | 0.05 | 37 | 1007.2 |
| 20260505190427 | 24 | 181 | 12.9 | 27.4 | 0.00 | 0.05 | 0.05 | 39 | 1007.1 |
| 20260505185927 | 24 | 174 | 11.3 | 30.6 | 0.00 | 0.05 | 0.05 | 40 | 1007.3 |
| 20260505185426 | 24 | 178 | 11.3 | 19.3 | 0.00 | 0.05 | 0.05 | 39 | 1007.2 |
| 20260505184926 | 24 | 192 | 12.9 | 24.1 | 0.00 | 0.05 | 0.05 | 41 | 1007.4 |
| 20260505184426 | 24 | 275 | 12.9 | 38.6 | 0.00 | 0.05 | 0.05 | 40 | 1007.5 |
| 20260505183931 | -17 | 147 | 410.4 | 0.0 | 0.00 | 0.00 | 0.00 | ||
| 20260505183925 | 24 | 230 | 12.9 | 30.6 | 0.00 | 0.05 | 0.05 | 40 | 1007.8 |
| 20260505183427 | 23 | 194 | 14.5 | 25.7 | 0.00 | 0.05 | 0.05 | 40 | 1007.7 |
| 20260505182925 | 24 | 222 | 12.9 | 37.0 | 0.00 | 0.05 | 0.05 | 38 | 1007.7 |
| 20260505182425 | 25 | 182 | 9.7 | 20.9 | 0.00 | 0.05 | 0.05 | 40 | 1007.8 |
| 20260505181924 | 25 | 285 | 9.7 | 19.3 | 0.00 | 0.05 | 0.05 | 39 | 1007.6 |
| 20260505181424 | 24 | 161 | 9.7 | 20.9 | 0.00 | 0.05 | 0.05 | 42 | 1007.9 |
| 20260505180928 | -17 | 147 | 410.4 | 0.0 | 0.00 | 0.00 | 0.00 | ||
| 20260505180924 | 24 | 156 | 11.3 | 25.7 | 0.00 | 0.05 | 0.05 | 40 | 1007.8 |
| 20260505180423 | 24 | 167 | 11.3 | 27.4 | 0.00 | 0.05 | 0.05 | 40 | 1007.9 |
| 20260505175923 | 24 | 266 | 11.3 | 25.7 | 0.00 | 0.05 | 0.05 | 41 | 1007.9 |
| 20260505175427 | -17 | 147 | 410.4 | 0.0 | 0.00 | 0.00 | 0.00 | ||
| 20260505175423 | 23 | 186 | 14.5 | 29.0 | 0.00 | 0.05 | 0.05 | 42 | 1008.0 |
| 20260505174422 | 23 | 267 | 11.3 | 25.7 | 0.00 | 0.05 | 0.05 | 43 | 1008.3 |
| 20260505173927 | -17 | 147 | 410.4 | 0.0 | 0.00 | 0.00 | 0.00 | ||
| 20260505173922 | 23 | 214 | 9.7 | 33.8 | 0.00 | 0.05 | 0.05 | 45 | 1008.1 |
| 20260505173422 | 23 | 211 | 11.3 | 25.7 | 0.00 | 0.05 | 0.05 | 44 | 1008.2 |
| 20260505172921 | 23 | 264 | 11.3 | 29.0 | 0.00 | 0.05 | 0.05 | 44 | 1008.2 |
| 20260505172428 | -17 | 147 | 410.4 | 0.0 | 0.00 | 0.00 | 0.00 | ||
| 20260505172421 | 23 | 199 | 11.3 | 24.1 | 0.00 | 0.05 | 0.05 | 45 | 1008.3 |
| 20260505171921 | 23 | 221 | 11.3 | 32.2 | 0.00 | 0.05 | 0.05 | 48 | 1008.3 |
| 20260505171420 | 23 | 197 | 12.9 | 33.8 | 0.00 | 0.05 | 0.05 | 47 | 1008.4 |
| 20260505170925 | -17 | 147 | 410.4 | 0.0 | 0.00 | 0.00 | 0.00 | ||
| 20260505170920 | 23 | 217 | 14.5 | 30.6 | 0.00 | 0.05 | 0.05 | 46 | 1008.4 |
| 20260505170420 | 22 | 226 | 14.5 | 27.4 | 0.00 | 0.05 | 0.05 | 49 | 1008.3 |
| 20260505165419 | 22 | 196 | 12.9 | 25.7 | 0.00 | 0.05 | 0.05 | 48 | 1008.6 |
| 20260505164919 | 22 | 209 | 11.3 | 27.4 | 0.00 | 0.05 | 0.05 | 49 | 1008.6 |
| 20260505164419 | 23 | 175 | 11.3 | 22.5 | 0.00 | 0.05 | 0.05 | 49 | 1008.6 |
| 20260505163924 | -17 | 147 | 410.4 | 0.0 | 0.00 | 0.00 | 0.00 | ||
| 20260505163918 | 22 | 205 | 11.3 | 25.7 | 0.00 | 0.05 | 0.05 | 51 | 1008.7 |
| 20260505163418 | 22 | 265 | 9.7 | 32.2 | 0.00 | 0.05 | 0.05 | 51 | 1008.8 |
| 20260505162918 | 23 | 264 | 8.0 | 16.1 | 0.00 | 0.05 | 0.05 | 51 | 1008.9 |
| 20260505162422 | -17 | 147 | 410.4 | 0.0 | 0.00 | 0.00 | 0.00 | ||
| 20260505162417 | 22 | 239 | 9.7 | 20.9 | 0.00 | 0.05 | 0.05 | 52 | 1008.9 |
| 20260505161917 | 22 | 244 | 9.7 | 20.9 | 0.00 | 0.05 | 0.05 | 52 | 1009.1 |
| 20260505161417 | 22 | 187 | 8.0 | 20.9 | 0.00 | 0.05 | 0.05 | 52 | 1009.0 |
| 20260505160922 | -17 | 147 | 410.4 | 0.0 | 0.00 | 0.00 | 0.00 | ||
| 20260505160917 | 21 | 229 | 9.7 | 17.7 | 0.00 | 0.05 | 0.05 | 54 | 1009.1 |
| 20260505160416 | 21 | 202 | 9.7 | 25.7 | 0.00 | 0.05 | 0.05 | 52 | 1009.1 |
| 20260505152915 | 20 | 233 | 9.7 | 19.3 | 0.00 | 0.05 | 0.05 | 57 | 1009.5 |
| 20260505152419 | -17 | 147 | 410.4 | 0.0 | 0.00 | 0.00 | 0.00 | ||
| 20260505151914 | 20 | 223 | 8.0 | 22.5 | 0.00 | 0.05 | 0.05 | 59 | 1009.5 |
| 20260505151414 | 20 | 210 | 8.0 | 16.1 | 0.00 | 0.05 | 0.05 | 60 | 1009.7 |
| 20260505150918 | -17 | 147 | 410.4 | 0.0 | 0.00 | 0.00 | 0.00 | ||
| 20260505150913 | 20 | 242 | 8.0 | 16.1 | 0.00 | 0.05 | 0.05 | 60 | 1009.7 |
| 20260505150413 | 20 | 164 | 8.0 | 14.5 | 0.00 | 0.05 | 0.05 | 60 | 1009.8 |
| 20260505140409 | 17 | 215 | 8.0 | 24.1 | 0.00 | 0.05 | 0.05 | 68 | 1010.2 |
| 20260505124905 | 15 | 297 | 6.4 | 9.7 | 0.00 | 0.05 | 0.05 | 73 | 1010.0 |
| 20260505124405 | 15 | 227 | 6.4 | 14.5 | 0.00 | 0.05 | 0.05 | 72 | 1010.0 |
| 20260505123909 | -17 | 147 | 410.4 | 0.0 | 0.00 | 0.00 | 0.00 | ||
| 20260505123904 | 15 | 184 | 6.4 | 12.9 | 0.00 | 0.05 | 0.05 | 71 | 1010.1 |
| 20260505123404 | 15 | 254 | 6.4 | 12.9 | 0.00 | 0.05 | 0.05 | 72 | 1010.0 |
| 20260505122904 | 15 | 180 | 6.4 | 16.1 | 0.00 | 0.05 | 0.05 | 72 | 1010.0 |
| 20260505122408 | -17 | 147 | 410.4 | 0.0 | 0.00 | 0.00 | 0.00 | ||
| 20260505122404 | 15 | 218 | 6.4 | 14.5 | 0.00 | 0.05 | 0.05 | 73 | 1009.8 |
| 20260505121903 | 15 | 221 | 6.4 | 14.5 | 0.00 | 0.05 | 0.05 | 72 | 1010.1 |
| 20260505121403 | 15 | 230 | 6.4 | 12.9 | 0.00 | 0.05 | 0.05 | 73 | 1010.1 |
| 20260505120908 | -17 | 147 | 410.4 | 0.0 | 0.00 | 0.00 | 0.00 | ||
| 20260505120903 | 15 | 229 | 4.8 | 17.7 | 0.00 | 0.05 | 0.05 | 73 | 1010.0 |
| 20260505120402 | 14 | 188 | 4.8 | 8.0 | 0.00 | 0.05 | 0.05 | 73 | 1010.0 |
| 20260505115902 | 14 | 227 | 4.8 | 11.3 | 0.00 | 0.05 | 0.05 | 73 | 1010.0 |
| 20260505115408 | -17 | 147 | 410.4 | 0.0 | 0.00 | 0.00 | 0.00 | ||
| 20260505115402 | 14 | 239 | 4.8 | 8.0 | 0.00 | 0.05 | 0.05 | 74 | 1010.1 |
| 20260505114902 | 14 | 271 | 4.8 | 12.9 | 0.00 | 0.05 | 0.05 | 74 | 1010.2 |
| 20260505114401 | 14 | 268 | 4.8 | 9.7 | 0.00 | 0.05 | 0.05 | 75 | 1010.0 |
| 20260505113906 | -17 | 147 | 410.4 | 0.0 | 0.00 | 0.00 | 0.00 | ||
| 20260505113902 | 14 | 263 | 4.8 | 9.7 | 0.00 | 0.05 | 0.05 | 75 | 1009.9 |
| 20260505113401 | 13 | 166 | 4.8 | 9.7 | 0.00 | 0.05 | 0.05 | 76 | 1009.9 |
| 20260505112900 | 13 | 205 | 6.4 | 9.7 | 0.00 | 0.05 | 0.05 | 76 | 1009.9 |
| 20260505112405 | -17 | 147 | 410.4 | 0.0 | 0.00 | 0.00 | 0.00 | ||
| 20260505112400 | 13 | 199 | 4.8 | 11.3 | 0.00 | 0.05 | 0.05 | 76 | 1009.8 |
| 20260505111900 | 13 | 228 | 4.8 | 12.9 | 0.00 | 0.05 | 0.05 | 76 | 1009.6 |
| 20260505111359 | 13 | 188 | 4.8 | 12.9 | 0.00 | 0.05 | 0.05 | 77 | 1009.5 |
| 20260505110904 | -17 | 147 | 410.4 | 0.0 | 0.00 | 0.00 | 0.00 | ||
| 20260505110859 | 13 | 221 | 4.8 | 16.1 | 0.00 | 0.05 | 0.05 | 78 | 1009.5 |
| 20260505110359 | 12 | 194 | 4.8 | 16.1 | 0.00 | 0.05 | 0.05 | 79 | 1009.4 |
| 20260505101856 | 12 | 248 | 4.8 | 8.0 | 0.00 | 0.05 | 0.05 | 81 | 1009.7 |
| 20260505101356 | 12 | 208 | 4.8 | 11.3 | 0.00 | 0.05 | 0.05 | 82 | 1009.7 |
| 20260505100900 | -17 | 147 | 410.4 | 0.0 | 0.00 | 0.00 | 0.00 | ||
| 20260505100856 | 12 | 200 | 4.8 | 6.4 | 0.00 | 0.05 | 0.05 | 82 | 1009.5 |
| 20260505100356 | 12 | 161 | 4.8 | 6.4 | 0.00 | 0.05 | 0.05 | 82 | 1009.4 |
| 20260505095855 | 12 | 203 | 4.8 | 9.7 | 0.00 | 0.05 | 0.05 | 82 | 1009.4 |
| 20260505095633 | -17 | 147 | 410.4 | 0.0 | 0.00 | 0.00 | 0.00 | ||
| 20260505095400 | -17 | 147 | 410.4 | 0.0 | 0.00 | 0.00 | 0.00 | ||
| 20260505095355 | 12 | 213 | 4.8 | 8.0 | 0.00 | 0.05 | 0.05 | 83 | 1009.3 |
| 20260505094855 | 12 | 213 | 4.8 | 9.7 | 0.00 | 0.05 | 0.05 | 84 | 1009.2 |
| 20260505094354 | 12 | 201 | 3.2 | 8.0 | 0.03 | 0.05 | 0.05 | 85 | 1009.1 |
| 20260505093859 | -17 | 147 | 410.4 | 0.0 | 0.00 | 0.00 | 0.00 | ||
| 20260505093854 | 12 | 211 | 3.2 | 6.4 | 0.05 | 0.05 | 0.05 | 86 | 1009.1 |
| 20260505093354 | 12 | 171 | 3.2 | 8.0 | 0.05 | 0.05 | 0.05 | 86 | 1009.2 |
| 20260505092853 | 12 | 215 | 3.2 | 6.4 | 0.05 | 0.05 | 0.05 | 87 | 1009.2 |
| 20260505092358 | -17 | 147 | 410.4 | 0.0 | 0.00 | 0.00 | 0.00 | ||
| 20260505092353 | 12 | 192 | 3.2 | 6.4 | 0.05 | 0.05 | 0.05 | 87 | 1009.1 |
| 20260505091853 | 12 | 165 | 3.2 | 8.0 | 0.05 | 0.05 | 0.05 | 88 | 1009.1 |
| 20260505091352 | 11 | 211 | 1.6 | 6.4 | 0.05 | 0.05 | 0.05 | 89 | 1009.0 |
| 20260505090857 | -17 | 147 | 410.4 | 0.0 | 0.00 | 0.00 | 0.00 | ||
| 20260505090852 | 11 | 211 | 1.6 | 3.2 | 0.05 | 0.05 | 0.05 | 89 | 1009.1 |
| 20260505090352 | 12 | 211 | 1.6 | 1.6 | 0.05 | 0.05 | 0.05 | 88 | 1009.2 |
| 20260505085852 | 12 | 211 | 1.6 | 3.2 | 0.05 | 0.05 | 0.05 | 87 | 1009.2 |
| 20260505085356 | -17 | 147 | 410.4 | 0.0 | 0.00 | 0.00 | 0.00 | ||
| 20260505085351 | 12 | 211 | 3.2 | 4.8 | 0.05 | 0.05 | 0.05 | 86 | 1009.3 |
| 20260505084851 | 12 | 176 | 4.8 | 9.7 | 0.05 | 0.05 | 0.05 | 84 | 1009.4 |
| 20260505084351 | 12 | 186 | 6.4 | 11.3 | 0.03 | 0.03 | 0.03 | 80 | 1009.5 |
| 20260505083855 | -17 | 147 | 410.4 | 0.0 | 0.00 | 0.00 | 0.00 | ||
| 20260505083851 | 13 | 221 | 6.4 | 16.1 | 0.00 | 0.00 | 0.00 | 76 | 1009.3 |
| 20260505083350 | 13 | 236 | 6.4 | 19.3 | 0.00 | 0.00 | 0.00 | 73 | 1009.8 |
| 20260505082850 | 12 | 200 | 4.8 | 8.0 | 0.00 | 0.00 | 0.00 | 72 | 1009.9 |
| 20260505082350 | 12 | 184 | 4.8 | 9.7 | 0.00 | 0.00 | 0.00 | 71 | 1009.8 |
| 20260505081849 | 12 | 214 | 4.8 | 6.4 | 0.00 | 0.00 | 0.00 | 71 | 1009.9 |
| 20260505081349 | 12 | 209 | 3.2 | 8.0 | 0.00 | 0.00 | 0.00 | 71 | 1009.9 |
| 20260505080854 | -17 | 147 | 410.4 | 0.0 | 0.00 | 0.00 | 0.00 | ||
| 20260505080849 | 12 | 209 | 3.2 | 8.0 | 0.00 | 0.00 | 0.00 | 71 | 1009.7 |
| 20260505080348 | 12 | 225 | 3.2 | 8.0 | 0.00 | 0.00 | 0.00 | 71 | 1009.5 |
| 20260505075848 | 12 | 164 | 3.2 | 4.8 | 0.00 | 0.00 | 0.00 | 71 | 1009.3 |
| 20260505075353 | -17 | 147 | 410.4 | 0.0 | 0.00 | 0.00 | 0.00 | ||
| 20260505075348 | 12 | 163 | 1.6 | 4.8 | 0.00 | 0.00 | 0.00 | 70 | 1009.3 |
| 20260505074848 | 12 | 163 | 1.6 | 3.2 | 0.00 | 0.00 | 0.00 | 70 | 1009.2 |
| 20260505074347 | 12 | 163 | 1.6 | 3.2 | 0.00 | 0.00 | 0.00 | 70 | 1009.1 |
| 20260505073852 | -17 | 147 | 410.4 | 0.0 | 0.00 | 0.00 | 0.00 | ||
| 20260505073847 | 12 | 163 | 3.2 | 4.8 | 0.00 | 0.00 | 0.00 | 70 | 1009.0 |
| 20260505073347 | 12 | 159 | 3.2 | 4.8 | 0.00 | 0.00 | 0.00 | 70 | 1009.1 |
| 20260505072846 | 12 | 158 | 3.2 | 4.8 | 0.00 | 0.00 | 0.00 | 69 | 1009.1 |
| 20260505072348 | 12 | 158 | 3.2 | 4.8 | 0.00 | 0.00 | 0.00 | 69 | 1009.0 |
| 20260505071848 | 12 | 161 | 3.2 | 4.8 | 0.00 | 0.00 | 0.00 | 69 | 1009.1 |
| 20260505071346 | 12 | 161 | 3.2 | 8.0 | 0.00 | 0.00 | 0.00 | 69 | 1009.2 |
| 20260505070850 | -17 | 147 | 410.4 | 0.0 | 0.00 | 0.00 | 0.00 | ||
| 20260505070845 | 12 | 182 | 3.2 | 4.8 | 0.00 | 0.00 | 0.00 | 69 | 1009.2 |
| 20260505070345 | 12 | 182 | 3.2 | 4.8 | 0.00 | 0.00 | 0.00 | 68 | 1009.2 |
| 20260505065845 | 12 | 183 | 3.2 | 4.8 | 0.00 | 0.00 | 0.00 | 68 | 1009.1 |
| 20260505065349 | -17 | 147 | 410.4 | 0.0 | 0.00 | 0.00 | 0.00 | ||
| 20260505065344 | 12 | 182 | 3.2 | 6.4 | 0.00 | 0.00 | 0.00 | 68 | 1009.1 |
| 20260505064844 | 13 | 208 | 3.2 | 8.0 | 0.00 | 0.00 | 0.00 | 67 | 1009.2 |
| 20260505064344 | 13 | 240 | 3.2 | 6.4 | 0.00 | 0.00 | 0.00 | 68 | 1009.2 |
| 20260505063848 | -17 | 147 | 410.4 | 0.0 | 0.00 | 0.00 | 0.00 | ||
| 20260505063844 | 13 | 201 | 3.2 | 9.7 | 0.00 | 0.00 | 0.00 | 67 | 1009.2 |
| 20260505063343 | 13 | 198 | 3.2 | 4.8 | 0.00 | 0.00 | 0.00 | 67 | 1009.2 |
| 20260505062843 | 13 | 188 | 3.2 | 4.8 | 0.00 | 0.00 | 0.00 | 66 | 1009.2 |
| 20260505062343 | 13 | 188 | 3.2 | 6.4 | 0.00 | 0.00 | 0.00 | 66 | 1009.3 |
| 20260505061842 | 13 | 192 | 3.2 | 6.4 | 0.00 | 0.00 | 0.00 | 66 | 1009.4 |
| 20260505061342 | 13 | 189 | 3.2 | 6.4 | 0.00 | 0.00 | 0.00 | 66 | 1009.4 |
| 20260505060847 | -17 | 147 | 410.4 | 0.0 | 0.00 | 0.00 | 0.00 | ||
| 20260505060842 | 13 | 190 | 3.2 | 6.4 | 0.00 | 0.00 | 0.00 | 66 | 1009.5 |
| 20260505060341 | 13 | 202 | 3.2 | 6.4 | 0.00 | 0.00 | 0.00 | 66 | 1009.6 |
| 20260505055841 | 13 | 192 | 3.2 | 8.0 | 0.00 | 0.00 | 0.00 | 65 | 1009.6 |
| 20260505055346 | -17 | 147 | 410.4 | 0.0 | 0.00 | 0.00 | 0.00 | ||
| 20260505055341 | 13 | 197 | 3.2 | 9.7 | 0.00 | 0.00 | 0.00 | 65 | 1009.6 |
| 20260505054841 | 13 | 177 | 3.2 | 8.0 | 0.00 | 0.00 | 0.00 | 65 | 1009.6 |
| 20260505054340 | 13 | 178 | 3.2 | 6.4 | 0.00 | 0.00 | 0.00 | 64 | 1009.6 |
| 20260505053845 | -17 | 147 | 410.4 | 0.0 | 0.00 | 0.00 | 0.00 | ||
| 20260505053840 | 13 | 208 | 3.2 | 6.4 | 0.00 | 0.00 | 0.00 | 65 | 1009.6 |
| 20260505053340 | 13 | 254 | 3.2 | 6.4 | 0.00 | 0.00 | 0.00 | 63 | 1009.7 |
| 20260505052840 | 13 | 259 | 3.2 | 6.4 | 0.00 | 0.00 | 0.00 | 63 | 1009.6 |
| 20260505052344 | -17 | 147 | 410.4 | 0.0 | 0.00 | 0.00 | 0.00 | ||
| 20260505052339 | 14 | 250 | 4.8 | 11.3 | 0.00 | 0.00 | 0.00 | 62 | 1009.7 |
| 20260505051839 | 14 | 217 | 4.8 | 11.3 | 0.00 | 0.00 | 0.00 | 62 | 1009.7 |
| 20260505051339 | 14 | 192 | 4.8 | 9.7 | 0.00 | 0.00 | 0.00 | 62 | 1009.6 |
| 20260505050844 | -17 | 147 | 410.4 | 0.0 | 0.00 | 0.00 | 0.00 | ||
| 20260505050838 | 14 | 200 | 4.8 | 12.9 | 0.00 | 0.00 | 0.00 | 62 | 1009.7 |
| 20260505050338 | 14 | 182 | 4.8 | 11.3 | 0.00 | 0.00 | 0.00 | 61 | 1009.6 |
| 20260505041335 | 13 | 221 | 4.8 | 14.5 | 0.00 | 0.00 | 0.00 | 60 | 1009.4 |
| 20260505040842 | -17 | 147 | 410.4 | 0.0 | 0.00 | 0.00 | 0.00 | ||
| 20260505040835 | 13 | 213 | 4.8 | 16.1 | 0.00 | 0.00 | 0.00 | 61 | 1009.5 |
| 20260505040335 | 13 | 191 | 3.2 | 8.0 | 0.00 | 0.00 | 0.00 | 61 | 1009.5 |
| 20260505035834 | 13 | 207 | 3.2 | 6.4 | 0.00 | 0.00 | 0.00 | 61 | 1009.4 |
| 20260505035339 | -17 | 147 | 410.4 | 0.0 | 0.00 | 0.00 | 0.00 | ||
| 20260505035334 | 13 | 207 | 3.2 | 6.4 | 0.00 | 0.00 | 0.00 | 61 | 1009.4 |
| 20260505034834 | 13 | 167 | 3.2 | 6.4 | 0.00 | 0.00 | 0.00 | 61 | 1009.3 |
| 20260505034333 | 13 | 212 | 3.2 | 6.4 | 0.00 | 0.00 | 0.00 | 61 | 1009.4 |
| 20260505033838 | -17 | 147 | 410.4 | 0.0 | 0.00 | 0.00 | 0.00 | ||
| 20260505033833 | 13 | 180 | 3.2 | 8.0 | 0.00 | 0.00 | 0.00 | 62 | 1009.4 |
| 20260505033333 | 13 | 183 | 1.6 | 4.8 | 0.00 | 0.00 | 0.00 | 61 | 1009.3 |
| 20260505032833 | 13 | 181 | 1.6 | 4.8 | 0.00 | 0.00 | 0.00 | 61 | 1009.4 |
| 20260505032339 | -17 | 147 | 410.4 | 0.0 | 0.00 | 0.00 | 0.00 | ||
| 20260505032332 | 13 | 181 | 1.6 | 6.4 | 0.00 | 0.00 | 0.00 | 62 | 1009.5 |
| 20260505031832 | 13 | 196 | 1.6 | 3.2 | 0.00 | 0.00 | 0.00 | 61 | 1009.6 |
| 20260505031332 | 13 | 196 | 1.6 | 3.2 | 0.00 | 0.00 | 0.00 | 61 | 1009.7 |
| 20260505030836 | -17 | 147 | 410.4 | 0.0 | 0.00 | 0.00 | 0.00 | ||
| 20260505030831 | 13 | 197 | 1.6 | 4.8 | 0.00 | 0.00 | 0.00 | 61 | 1009.7 |
| 20260505030331 | 13 | 202 | 1.6 | 8.0 | 0.00 | 0.00 | 0.00 | 60 | 1009.7 |
| 20260505025831 | 13 | 211 | 1.6 | 4.8 | 0.00 | 0.00 | 0.00 | 59 | 1009.8 |
| 20260505025336 | -17 | 147 | 410.4 | 0.0 | 0.00 | 0.00 | 0.00 | ||
| 20260505025330 | 13 | 207 | 1.6 | 4.8 | 0.00 | 0.00 | 0.00 | 59 | 1009.8 |
| 20260505024831 | 14 | 207 | 1.6 | 4.8 | 0.00 | 0.00 | 0.00 | 59 | 1009.8 |
| 20260505024330 | 14 | 219 | 1.6 | 4.8 | 0.00 | 0.00 | 0.00 | 58 | 1009.9 |
| 20260505023834 | -17 | 147 | 410.4 | 0.0 | 0.00 | 0.00 | 0.00 | ||
| 20260505023830 | 14 | 220 | 3.2 | 4.8 | 0.00 | 0.00 | 0.00 | 58 | 1010.0 |
| 20260505023330 | 14 | 219 | 3.2 | 9.7 | 0.00 | 0.00 | 0.00 | 58 | 1010.0 |
| 20260505022829 | 14 | 179 | 4.8 | 11.3 | 0.00 | 0.00 | 0.00 | 57 | 1010.0 |
| 20260505022651 | 14 | 200 | 4.8 | 8.0 | 0.00 | 0.00 | 0.00 | 58 | 1010.1 |
| 20260505022334 | -17 | 147 | 410.4 | 0.0 | 0.00 | 0.00 | 0.00 | ||
| 20260505022329 | 14 | 158 | 4.8 | 8.0 | 0.00 | 0.00 | 0.00 | 57 | 1010.0 |
| 20260505021829 | 14 | 205 | 4.8 | 12.9 | 0.00 | 0.00 | 0.00 | 58 | 1010.0 |
| 20260505021328 | 14 | 179 | 3.2 | 8.0 | 0.00 | 0.00 | 0.00 | 58 | 1010.0 |
| 20260505020833 | -17 | 147 | 410.4 | 0.0 | 0.00 | 0.00 | 0.00 | ||
| 20260505020828 | 14 | 200 | 4.8 | 8.0 | 0.00 | 0.00 | 0.00 | 58 | 1010.1 |
| 20260505020328 | 14 | 158 | 4.8 | 9.7 | 0.00 | 0.00 | 0.00 | 58 | 1010.0 |